• In Austria
  • List of Countries
  • For 7 days
  • Water Temperature
  • Satellite Maps
  • Weather Map
  • News
  • Weather Widgets
  • user-avatar
    Login

    Hourly Weather Kiustendil

    Today, 23 February, Friday

    Time Temperature Precipitation Wind Pressure Humidity
    00:00 -3°C° 0 mm 1 mps 619 mmHg 90%
    01:00 -3°C° 0 mm 1 mps 619 mmHg 90%
    02:00 -4°C° 0 mm 1 mps 618 mmHg 90%
    03:00 -4°C° 0 mm 1 mps 618 mmHg 90%
    04:00 -4°C° 0 mm 1 mps 618 mmHg 90%
    05:00 -4°C° 0 mm 1 mps 618 mmHg 89%
    06:00 -3°C° 0 mm 1 mps 619 mmHg 87%
    07:00 -3°C° 0 mm 1 mps 619 mmHg 86%
    08:00 -2°C° 0 mm 1 mps 619 mmHg 81%
    09:00 -2°C° 0 mm 2 mps 620 mmHg 76%
    10:00 -1°C° 0 mm 2 mps 621 mmHg 71%
    11:00 +1°C° 0 mm 2 mps 621 mmHg 69%
    12:00 +2°C° 0 mm 2 mps 621 mmHg 67%
    13:00 +2°C° 0 mm 2 mps 621 mmHg 65%
    14:00 +2°C° 0 mm 2 mps 621 mmHg 66%
    15:00 +2°C° 0 mm 2 mps 620 mmHg 68%
    16:00 +2°C° 0 mm 2 mps 620 mmHg 70%
    17:00 -1°C° 0 mm 2 mps 620 mmHg 75%
    18:00 -2°C° 0 mm 2 mps 620 mmHg 80%
    19:00 -1°C° 0 mm 1 mps 619 mmHg 85%
    20:00 -1°C° 0 mm 1 mps 619 mmHg 87%
    21:00 -2°C° 0 mm 1 mps 619 mmHg 88%
    22:00 -2°C° 0 mm 1 mps 619 mmHg 90%
    23:00 -2°C° 0 mm 1 mps 619 mmHg 90%

    Tomorrow, 24 February, Saturday

    Time Temperature Precipitation Wind Pressure Humidity
    00:00 -3°C° 0 mm 1 mps 618 mmHg 91%
    01:00 -3°C° 0 mm 1 mps 618 mmHg 92%
    02:00 -3°C° 0 mm 1 mps 618 mmHg 92%
    03:00 -3°C° 0 mm 1 mps 618 mmHg 92%
    04:00 -3°C° 0 mm 1 mps 617 mmHg 92%
    05:00 -3°C° 0 mm 1 mps 617 mmHg 90%
    06:00 -3°C° 0 mm 1 mps 617 mmHg 89%
    07:00 -3°C° 0 mm 1 mps 617 mmHg 87%
    08:00 -2°C° 0 mm 1 mps 618 mmHg 82%
    09:00 0°C° 0 mm 1 mps 618 mmHg 77%
    10:00 +1°C° 0 mm 1 mps 618 mmHg 72%
    11:00 +1°C° 0 mm 1 mps 618 mmHg 70%
    12:00 +2°C° 0 mm 1 mps 618 mmHg 68%
    13:00 +2°C° 0 mm 1 mps 618 mmHg 66%
    14:00 +2°C° 0.1 mm 1 mps 618 mmHg 69%
    15:00 -1°C° 0.1 mm 2 mps 617 mmHg 71%
    16:00 -1°C° 0.1 mm 2 mps 617 mmHg 73%
    17:00 -2°C° 0.1 mm 2 mps 617 mmHg 76%
    18:00 -2°C° 0.1 mm 2 mps 617 mmHg 80%
    19:00 -3°C° 0.1 mm 2 mps 616 mmHg 83%
    20:00 -4°C° 0.1 mm 2 mps 616 mmHg 83%
    21:00 -5°C° 0.1 mm 3 mps 617 mmHg 83%
    22:00 -6°C° 0.1 mm 3 mps 617 mmHg 84%
    23:00 -7°C° 0.1 mm 3 mps 617 mmHg 83%

    Day after tomorrow, 25 February, Sunday

    Time Temperature Precipitation Wind Pressure Humidity
    00:00 -7°C° 0.1 mm 3 mps 617 mmHg 82%
    01:00 -8°C° 0.1 mm 3 mps 616 mmHg 81%
    02:00 -9°C° 0.1 mm 3 mps 616 mmHg 80%
    03:00 -9°C° 0.1 mm 3 mps 616 mmHg 80%
    04:00 -10°C° 0.1 mm 3 mps 616 mmHg 80%
    05:00 -10°C° 0.1 mm 3 mps 616 mmHg 79%
    06:00 -10°C° 0.1 mm 3 mps 617 mmHg 78%
    07:00 -12°C° 0.1 mm 3 mps 617 mmHg 77%
    08:00 -10°C° 0.1 mm 3 mps 617 mmHg 74%
    09:00 -10°C° 0.1 mm 3 mps 618 mmHg 72%
    10:00 -9°C° 0.1 mm 3 mps 618 mmHg 70%
    11:00 -9°C° 0.3 mm 3 mps 618 mmHg 71%
    12:00 -9°C° 0.3 mm 3 mps 618 mmHg 72%
    13:00 -9°C° 0.3 mm 3 mps 618 mmHg 73%
    14:00 -9°C° 0.2 mm 3 mps 618 mmHg 73%
    15:00 -8°C° 0.2 mm 2 mps 618 mmHg 74%
    16:00 -8°C° 0.2 mm 2 mps 617 mmHg 74%
    17:00 -9°C° 0.1 mm 2 mps 617 mmHg 76%
    18:00 -9°C° 0.1 mm 2 mps 617 mmHg 78%
    19:00 -10°C° 0.1 mm 2 mps 617 mmHg 80%
    20:00 -10°C° 0.3 mm 2 mps 617 mmHg 82%
    21:00 -10°C° 0.3 mm 2 mps 617 mmHg 84%
    22:00 -10°C° 0.3 mm 2 mps 617 mmHg 86%
    23:00 -10°C° 0.4 mm 2 mps 617 mmHg 87%

    26 February, Monday

    Time Temperature Precipitation Wind Pressure Humidity
    00:00 -10°C° 0.4 mm 2 mps 616 mmHg 87%
    01:00 -10°C° 0.4 mm 2 mps 616 mmHg 88%
    02:00 -10°C° 0.2 mm 2 mps 615 mmHg 88%
    03:00 -10°C° 0.2 mm 2 mps 615 mmHg 88%
    04:00 -10°C° 0.2 mm 2 mps 614 mmHg 87%
    05:00 -10°C° 0.5 mm 2 mps 614 mmHg 87%
    06:00 -13°C° 0.5 mm 3 mps 614 mmHg 87%
    07:00 -13°C° 0.5 mm 3 mps 613 mmHg 88%
    08:00 -12°C° 0.6 mm 3 mps 613 mmHg 87%
    09:00 -12°C° 0.6 mm 3 mps 613 mmHg 86%
    10:00 -12°C° 0.6 mm 3 mps 613 mmHg 86%
    11:00 -12°C° 0.4 mm 3 mps 613 mmHg 85%
    12:00 -10°C° 0.4 mm 3 mps 612 mmHg 85%
    13:00 -10°C° 0.4 mm 3 mps 612 mmHg 84%
    14:00 -10°C° 0.5 mm 3 mps 612 mmHg 86%
    15:00 -12°C° 0.5 mm 3 mps 611 mmHg 87%
    16:00 -12°C° 0.5 mm 3 mps 611 mmHg 88%
    17:00 -13°C° 0.6 mm 3 mps 611 mmHg 89%
    18:00 -12°C° 0.6 mm 2 mps 611 mmHg 90%
    19:00 -13°C° 0.6 mm 2 mps 611 mmHg 91%
    20:00 -13°C° 0.5 mm 2 mps 611 mmHg 92%
    21:00 -13°C° 0.5 mm 2 mps 611 mmHg 92%
    22:00 -14°C° 0.5 mm 2 mps 611 mmHg 92%
    23:00 -14°C° 0.2 mm 2 mps 611 mmHg 92%

    27 February, Tuesday

    Time Temperature Precipitation Wind Pressure Humidity
    00:00 -14°C° 0.2 mm 2 mps 611 mmHg 92%
    01:00 -14°C° 0.2 mm 2 mps 611 mmHg 91%
    02:00 -14°C° 0.2 mm 2 mps 610 mmHg 91%
    03:00 -12°C° 0.2 mm 1 mps 610 mmHg 91%
    04:00 -13°C° 0.2 mm 1 mps 610 mmHg 91%
    05:00 -13°C° 0.1 mm 1 mps 610 mmHg 91%
    06:00 -12°C° 0.1 mm 1 mps 610 mmHg 90%
    07:00 -12°C° 0.1 mm 1 mps 610 mmHg 90%
    08:00 -11°C° 0.2 mm 1 mps 611 mmHg 88%
    09:00 -10°C° 0.2 mm 1 mps 611 mmHg 87%
    10:00 -10°C° 0.2 mm 2 mps 612 mmHg 86%
    11:00 -9°C° 0 mm 2 mps 612 mmHg 85%
    12:00 -8°C° 0 mm 2 mps 612 mmHg 85%
    13:00 -7°C° 0 mm 2 mps 612 mmHg 85%
    14:00 -7°C° 0 mm 2 mps 613 mmHg 84%
    15:00 -7°C° 0 mm 2 mps 613 mmHg 84%
    16:00 -7°C° 0 mm 2 mps 613 mmHg 84%
    17:00 -8°C° 0 mm 2 mps 613 mmHg 85%
    18:00 -10°C° 0 mm 2 mps 613 mmHg 87%
    19:00 -10°C° 0 mm 1 mps 613 mmHg 88%
    20:00 -11°C° 0 mm 1 mps 613 mmHg 88%
    21:00 -11°C° 0 mm 1 mps 613 mmHg 87%
    22:00 -12°C° 0 mm 1 mps 613 mmHg 86%
    23:00 -12°C° 0 mm 1 mps 613 mmHg 86%

    28 February, Wednesday

    Time Temperature Precipitation Wind Pressure Humidity
    00:00 -12°C° 0 mm 1 mps 613 mmHg 86%
    01:00 -14°C° 0 mm 2 mps 613 mmHg 86%
    02:00 -15°C° 0 mm 2 mps 613 mmHg 86%
    03:00 -15°C° 0 mm 2 mps 613 mmHg 85%
    04:00 -15°C° 0 mm 2 mps 613 mmHg 85%
    05:00 -15°C° 0 mm 2 mps 613 mmHg 84%
    06:00 -15°C° 0 mm 2 mps 614 mmHg 84%
    07:00 -15°C° 0 mm 2 mps 614 mmHg 83%
    08:00 -14°C° 0 mm 2 mps 615 mmHg 79%
    09:00 -12°C° 0 mm 2 mps 616 mmHg 76%
    10:00 -9°C° 0 mm 2 mps 616 mmHg 72%
    11:00 -9°C° 0 mm 2 mps 617 mmHg 71%
    12:00 -8°C° 0 mm 2 mps 617 mmHg 69%
    13:00 -7°C° 0 mm 2 mps 617 mmHg 67%
    14:00 -8°C° 0 mm 2 mps 618 mmHg 68%
    15:00 -7°C° 0 mm 1 mps 618 mmHg 69%
    16:00 -7°C° 0 mm 1 mps 618 mmHg 69%
    17:00 -9°C° 0 mm 1 mps 618 mmHg 71%
    18:00 -10°C° 0 mm 1 mps 617 mmHg 72%
    19:00 -12°C° 0 mm 1 mps 617 mmHg 74%
    20:00 -12°C° 0 mm 1 mps 618 mmHg 73%
    21:00 -11°C° 0 mm 1 mps 618 mmHg 71%
    22:00 -11°C° 0 mm 1 mps 619 mmHg 70%
    23:00 -11°C° 0 mm 1 mps 619 mmHg 70%
    Show more